owner,sensor,date,latitude,longitude,vertical_datum,wind_speed,wind_to_direction,wind_speed_of_gust,qcFlag 
TABS,ioos:station:wmo:42045:1,2012-06-01T00:00:00Z,26.2168,-96.4998,4.0,0.920054346,89.37682485,3.28,'11111222,11111222,11111222' 
TABS,ioos:station:wmo:42045:1,2012-06-01T00:30:00Z,26.2168,-96.4998,4.0,0.650691939,87.35703997,2.17,'11111222,11111222,11111222' 
TABS,ioos:station:wmo:42045:1,2012-06-01T01:00:00Z,26.2168,-96.4998,4.0,0.491629942,85.33273162,1.53,'11111222,11111222,11111222' 
TABS,ioos:station:wmo:42045:1,2012-06-01T01:30:00Z,26.2168,-96.4998,4.0,0.260192237,92.20301393,0.9,'11111222,11111222,11111222' 
TABS,ioos:station:wmo:42045:1,2012-06-01T02:00:00Z,26.2168,-96.4998,4.0,0.1,90.00042092,0.41,'11111222,11111222,11111222' 
TABS,ioos:station:wmo:42045:1,2012-06-01T02:30:00Z,26.2168,-96.4998,4.0,0.171172428,83.28975797,0.84,'11111222,11111222,11111222' 
TABS,ioos:station:wmo:42045:1,2012-06-01T03:00:00Z,26.2168,-96.4998,4.0,0.460108683,88.75421773,1.09,'11111222,11111222,11111222' 
TABS,ioos:station:wmo:42045:1,2012-06-01T03:30:00Z,26.2168,-96.4998,4.0,0.082462113,75.96336844,0.6,'11111222,11111222,11111222' 
TABS,ioos:station:wmo:42045:1,2012-06-01T04:00:00Z,26.2168,-96.4998,4.0,0.490407993,87.66227869,1.4,'11111222,11111222,11111222' 
TABS,ioos:station:wmo:42045:1,2012-06-01T04:30:00Z,26.2168,-96.4998,4.0,0.51009803,88.876279,1.47,'11111222,11111222,11111222' 
TABS,ioos:station:wmo:42045:1,2012-06-01T05:00:00Z,26.2168,-96.4998,4.0,0.570350769,87.99002997,1.61,'11111222,11111222,11111222' 
TABS,ioos:station:wmo:42045:1,2012-06-01T05:30:00Z,26.2168,-96.4998,4.0,0.11,270.0,0.85,'11111222,11111222,11111222' 
TABS,ioos:station:wmo:42045:1,2012-06-01T06:00:00Z,26.2168,-96.4998,4.0,0.31,90.00042092,0.86,'11111222,11111222,11111222' 
TABS,ioos:station:wmo:42045:1,2012-06-01T06:30:00Z,26.2168,-96.4998,4.0,0.172626765,259.9920436,0.46,'11111222,11111222,11111222' 
TABS,ioos:station:wmo:42045:1,2012-06-01T07:00:00Z,26.2168,-96.4998,4.0,0.30016662,91.90956889,0.9,'11111222,11111222,11111222' 
TABS,ioos:station:wmo:42045:1,2012-06-01T07:30:00Z,26.2168,-96.4998,4.0,0.37013511,88.451425,1.19,'11111222,11111222,11111222' 
TABS,ioos:station:wmo:42045:1,2012-06-01T08:00:00Z,26.2168,-96.4998,4.0,0.530094331,88.91865742,1.82,'11111222,11111222,11111222' 
TABS,ioos:station:wmo:42045:1,2012-06-01T08:30:00Z,26.2168,-96.4998,4.0,0.540370243,87.87848765,1.94,'11111222,11111222,11111222' 
TABS,ioos:station:wmo:42045:1,2012-06-01T09:00:00Z,26.2168,-96.4998,4.0,0.450111097,91.27344796,1.84,'11111222,11111222,11111222' 
TABS,ioos:station:wmo:42045:1,2012-06-01T09:30:00Z,26.2168,-96.4998,4.0,0.440454311,87.39702297,1.73,'11111222,11111222,11111222' 
TABS,ioos:station:wmo:42045:1,2012-06-01T10:00:00Z,26.2168,-96.4998,4.0,0.51009803,91.123721,2.26,'11111222,11111222,11111222' 
TABS,ioos:station:wmo:42045:1,2012-06-01T10:30:00Z,26.2168,-96.4998,4.0,0.290172363,91.97535031,1.82,'11111222,11111222,11111222' 
TABS,ioos:station:wmo:42045:1,2012-06-01T11:00:00Z,26.2168,-96.4998,4.0,0.560089279,91.02344871,1.99,'11111222,11111222,11111222' 
TABS,ioos:station:wmo:42045:1,2012-06-01T11:30:00Z,26.2168,-96.4998,4.0,0.560802996,93.06689925,2.38,'11111222,11111222,11111222' 
TABS,ioos:station:wmo:42045:1,2012-06-01T12:00:00Z,26.2168,-96.4998,4.0,0.741080293,93.09447174,2.73,'11111222,11111222,11111222' 
TABS,ioos:station:wmo:42045:1,2012-06-01T12:30:00Z,26.2168,-96.4998,4.0,0.740067564,90.77463927,2.79,'11111222,11111222,11111222' 
TABS,ioos:station:wmo:42045:1,2012-06-01T13:00:00Z,26.2168,-96.4998,4.0,0.40012498,88.56748625,1.88,'11111222,11111222,11111222' 
TABS,ioos:station:wmo:42045:1,2012-06-01T13:30:00Z,26.2168,-96.4998,4.0,0.550363516,92.08298133,2.08,'11111222,11111222,11111222' 
TABS,ioos:station:wmo:42045:1,2012-06-01T14:00:00Z,26.2168,-96.4998,4.0,0.51009803,91.123721,2.17,'11111222,11111222,11111222' 
TABS,ioos:station:wmo:42045:1,2012-06-01T14:30:00Z,26.2168,-96.4998,4.0,0.282842712,81.86949574,1.74,'11111222,11111222,11111222' 
TABS,ioos:station:wmo:42045:1,2012-06-01T15:00:00Z,26.2168,-96.4998,4.0,0.291547595,84.09345178,1.19,'11111222,11111222,11111222' 
TABS,ioos:station:wmo:42045:1,2012-06-01T15:30:00Z,26.2168,-96.4998,4.0,0.271661554,83.65940216,1.53,'11111222,11111222,11111222' 
TABS,ioos:station:wmo:42045:1,2012-06-01T16:00:00Z,26.2168,-96.4998,4.0,0.014142136,314.9998948,1.47,'11111222,11111222,11111222' 
TABS,ioos:station:wmo:42045:1,2012-06-01T16:30:00Z,26.2168,-96.4998,4.0,0.27,270.0,1.74,'11111222,11111222,11111222' 
TABS,ioos:station:wmo:42045:1,2012-06-01T17:00:00Z,26.2168,-96.4998,4.0,0.108166538,213.6901992,1.45,'11111222,11111222,11111222' 
TABS,ioos:station:wmo:42045:1,2012-06-01T17:30:00Z,26.2168,-96.4998,4.0,0.072801099,285.9453586,1.84,'11111222,11111222,11111222' 
TABS,ioos:station:wmo:42045:1,2012-06-02T00:00:00Z,26.2168,-96.4998,4.0,0.270739727,94.23680581,1.26,'11111222,11111222,11111222' 
TABS,ioos:station:wmo:42045:1,2012-06-02T00:30:00Z,26.2168,-96.4998,4.0,0.245153013,101.7686823,1.31,'11111222,11111222,11111222' 
TABS,ioos:station:wmo:42045:1,2012-06-02T01:00:00Z,26.2168,-96.4998,4.0,0.230867928,94.97015002,1.04,'11111222,11111222,11111222' 
TABS,ioos:station:wmo:42045:1,2012-06-02T01:30:00Z,26.2168,-96.4998,4.0,0.120415946,85.23594853,0.74,'11111222,11111222,11111222' 
TABS,ioos:station:wmo:42045:1,2012-06-02T02:00:00Z,26.2168,-96.4998,4.0,0.230217289,87.51003198,1.29,'11111222,11111222,11111222' 
TABS,ioos:station:wmo:42045:1,2012-06-02T02:30:00Z,26.2168,-96.4998,4.0,0.200249844,92.86281945,0.84,'11111222,11111222,11111222' 
TABS,ioos:station:wmo:42045:1,2012-06-02T03:00:00Z,26.2168,-96.4998,4.0,0.15132746,97.59504653,0.93,'11111222,11111222,11111222' 
TABS,ioos:station:wmo:42045:1,2012-06-02T03:30:00Z,26.2168,-96.4998,4.0,0.058309519,59.03589496,0.56,'11111222,11111222,11111222' 
TABS,ioos:station:wmo:42045:1,2012-06-02T04:00:00Z,26.2168,-96.4998,4.0,0.100498756,84.2889993,0.62,'11111222,11111222,11111222' 
TABS,ioos:station:wmo:42045:1,2012-06-02T04:30:00Z,26.2168,-96.4998,4.0,0.121655251,99.462721,0.78,'11111222,11111222,11111222' 
TABS,ioos:station:wmo:42045:1,2012-06-02T05:00:00Z,26.2168,-96.4998,4.0,0.072801099,74.05422047,0.81,'11111222,11111222,11111222' 
TABS,ioos:station:wmo:42045:1,2012-06-02T05:30:00Z,26.2168,-96.4998,4.0,0.262488095,107.745051,1.86,'11111222,11111222,11111222' 
TABS,ioos:station:wmo:42045:1,2012-06-02T06:00:00Z,26.2168,-96.4998,4.0,0.271661554,263.6598231,1.15,'11111222,11111222,11111222' 
TABS,ioos:station:wmo:42045:1,2012-06-02T06:30:00Z,26.2168,-96.4998,4.0,0.192353841,242.1027942,1.34,'11111222,11111222,11111222' 
TABS,ioos:station:wmo:42045:1,2012-06-02T07:00:00Z,26.2168,-96.4998,4.0,0.383275358,254.8760281,1.54,'11111222,11111222,11111222' 
TABS,ioos:station:wmo:42045:1,2012-06-02T07:30:00Z,26.2168,-96.4998,4.0,0.45607017,254.744917,1.31,'11111222,11111222,11111222' 
TABS,ioos:station:wmo:42045:1,2012-06-02T08:00:00Z,26.2168,-96.4998,4.0,0.260192237,267.797407,0.79,'11111222,11111222,11111222' 
TABS,ioos:station:wmo:42045:1,2012-06-02T08:30:00Z,26.2168,-96.4998,4.0,0.04472136,153.4352214,0.51,'11111222,11111222,11111222' 
TABS,ioos:station:wmo:42045:1,2012-06-02T09:00:00Z,26.2168,-96.4998,4.0,0.123693169,104.0366316,0.99,'11111222,11111222,11111222' 
TABS,ioos:station:wmo:42045:1,2012-06-02T09:30:00Z,26.2168,-96.4998,4.0,0.082462113,75.96336844,0.51,'11111222,11111222,11111222' 
TABS,ioos:station:wmo:42045:1,2012-06-02T10:00:00Z,26.2168,-96.4998,4.0,0.09,90.00042092,0.71,'11111222,11111222,11111222' 
TABS,ioos:station:wmo:42045:1,2012-06-02T10:30:00Z,26.2168,-96.4998,4.0,0.488364618,259.3803696,1.1,'11111222,11111222,11111222' 
TABS,ioos:station:wmo:42045:1,2012-06-02T11:00:00Z,26.2168,-96.4998,4.0,0.335410197,259.6951776,1.56,'11111222,11111222,11111222' 
TABS,ioos:station:wmo:42045:1,2012-06-02T11:30:00Z,26.2168,-96.4998,4.0,0.445533388,260.9605383,1.89,'11111222,11111222,11111222' 
TABS,ioos:station:wmo:42045:1,2012-06-02T12:00:00Z,26.2168,-96.4998,4.0,0.344818793,253.1416407,1.86,'11111222,11111222,11111222' 
TABS,ioos:station:wmo:42045:1,2012-06-02T12:30:00Z,26.2168,-96.4998,4.0,0.270739727,265.7636151,1.34,'11111222,11111222,11111222' 
TABS,ioos:station:wmo:42045:1,2012-06-02T13:00:00Z,26.2168,-96.4998,4.0,0.669103878,260.5376999,2.45,'11111222,11111222,11111222' 
TABS,ioos:station:wmo:42045:1,2012-06-02T13:30:00Z,26.2168,-96.4998,4.0,0.66189123,265.6676961,2.31,'11111222,11111222,11111222' 
TABS,ioos:station:wmo:42045:1,2012-06-02T14:00:00Z,26.2168,-96.4998,4.0,0.66370174,263.9458223,2.21,'11111222,11111222,11111222' 
TABS,ioos:station:wmo:42045:1,2012-06-02T14:30:00Z,26.2168,-96.4998,4.0,1.353698637,265.7636151,3.63,'11111222,11111222,11111222' 
TABS,ioos:station:wmo:42045:1,2012-06-02T15:00:00Z,26.2168,-96.4998,4.0,1.111125555,267.4208585,2.69,'11111222,11111222,11111222' 
TABS,ioos:station:wmo:42045:1,2012-06-02T15:30:00Z,26.2168,-96.4998,4.0,0.512445119,264.4006738,2.1,'11111222,11111222,11111222' 
TABS,ioos:station:wmo:42045:1,2012-06-02T16:00:00Z,26.2168,-96.4998,4.0,0.606712452,261.4692543,2.5,'11111222,11111222,11111222' 
TABS,ioos:station:wmo:42045:1,2012-06-02T16:30:00Z,26.2168,-96.4998,4.0,0.317804972,257.2756741,2.18,'11111222,11111222,11111222' 
TABS,ioos:station:wmo:42045:1,2012-06-02T17:00:00Z,26.2168,-96.4998,4.0,0.772334125,265.5444076,2.93,'11111222,11111222,11111222' 
TABS,ioos:station:wmo:42045:1,2012-06-02T17:30:00Z,26.2168,-96.4998,4.0,0.2596151,254.3577901,2.3,'11111222,11111222,11111222' 
TABS,ioos:station:wmo:42045:1,2012-06-02T18:00:00Z,26.2168,-96.4998,4.0,0.192353841,261.0273944,1.87,'11111222,11111222,11111222' 
TABS,ioos:station:wmo:42045:1,2012-06-02T18:30:00Z,26.2168,-96.4998,4.0,0.174642492,103.2409099,2.14,'11111222,11111222,11111222' 
TABS,ioos:station:wmo:42045:1,2012-06-02T19:00:00Z,26.2168,-96.4998,4.0,0.693541635,264.2072171,4.43,'11111222,11111222,11111222' 
TABS,ioos:station:wmo:42045:1,2012-06-02T19:30:00Z,26.2168,-96.4998,4.0,1.00124922,267.1376015,3.46,'11111222,11111222,11111222' 
TABS,ioos:station:wmo:42045:1,2012-06-02T20:00:00Z,26.2168,-96.4998,4.0,0.461735855,265.0302709,3.92,'11111222,11111222,11111222' 
TABS,ioos:station:wmo:42045:1,2012-06-02T20:30:00Z,26.2168,-96.4998,4.0,0.058309519,210.9638946,2.35,'11111222,11111222,11111222' 
TABS,ioos:station:wmo:42045:1,2012-06-02T21:00:00Z,26.2168,-96.4998,4.0,0.143178211,204.7752931,3.12,'11111222,11111222,11111222' 
TABS,ioos:station:wmo:42045:1,2012-06-02T21:30:00Z,26.2168,-96.4998,4.0,0.298328678,256.4295973,2.36,'11111222,11111222,11111222' 
TABS,ioos:station:wmo:42045:1,2012-06-02T22:00:00Z,26.2168,-96.4998,4.0,0.434165867,255.3236412,3.06,'11111222,11111222,11111222' 
TABS,ioos:station:wmo:42045:1,2012-06-02T22:30:00Z,26.2168,-96.4998,4.0,0.086023253,125.5380156,1.6,'11111222,11111222,11111222' 
TABS,ioos:station:wmo:42045:1,2012-06-02T23:00:00Z,26.2168,-96.4998,4.0,0.436577599,249.9048158,2.1,'11111222,11111222,11111222' 
TABS,ioos:station:wmo:42045:1,2012-06-02T23:30:00Z,26.2168,-96.4998,4.0,0.148660687,250.3462219,3.75,'11111222,11111222,11111222' 
TABS,ioos:station:wmo:42045:1,2012-06-03T00:00:00Z,26.2168,-96.4998,4.0,0.382753184,109.8555889,1.57,'11111222,11111222,11111222' 
TABS,ioos:station:wmo:42045:1,2012-06-03T00:30:00Z,26.2168,-96.4998,4.0,0.090553851,276.3401769,2.01,'11111222,11111222,11111222' 
TABS,ioos:station:wmo:42045:1,2012-06-03T01:00:00Z,26.2168,-96.4998,4.0,0.063245553,71.56467337,2.01,'11111222,11111222,11111222' 
TABS,ioos:station:wmo:42045:1,2012-06-03T01:30:00Z,26.2168,-96.4998,4.0,0.031622777,198.4351162,1.41,'11111222,11111222,11111222' 
TABS,ioos:station:wmo:42045:1,2012-06-03T02:00:00Z,26.2168,-96.4998,4.0,0.200249844,272.8623985,1.62,'11111222,11111222,11111222' 
TABS,ioos:station:wmo:42045:1,2012-06-03T02:30:00Z,26.2168,-96.4998,4.0,0.053851648,111.8017794,2.91,'11111222,11111222,11111222' 
TABS,ioos:station:wmo:42045:1,2012-06-03T03:00:00Z,26.2168,-96.4998,4.0,0.383275358,254.8760281,2.93,'11111222,11111222,11111222' 
TABS,ioos:station:wmo:42045:1,2012-06-03T03:30:00Z,26.2168,-96.4998,4.0,0.080622577,240.2551883,2.27,'11111222,11111222,11111222' 
TABS,ioos:station:wmo:42045:1,2012-06-03T04:00:00Z,26.2168,-96.4998,4.0,0.288617394,255.9637894,3.08,'11111222,11111222,11111222' 
TABS,ioos:station:wmo:42045:1,2012-06-03T04:30:00Z,26.2168,-96.4998,4.0,0.225610283,257.1957639,2.13,'11111222,11111222,11111222' 
TABS,ioos:station:wmo:42045:1,2012-06-03T05:00:00Z,26.2168,-96.4998,4.0,0.386393582,259.5625491,2.61,'11111222,11111222,11111222' 
TABS,ioos:station:wmo:42045:1,2012-06-03T05:30:00Z,26.2168,-96.4998,4.0,0.171172428,96.71024203,1.71,'11111222,11111222,11111222' 
TABS,ioos:station:wmo:42045:1,2012-06-03T06:00:00Z,26.2168,-96.4998,4.0,0.01,359.9997895,1.6,'11111222,11144222,11111222' 
TABS,ioos:station:wmo:42045:1,2012-06-03T06:30:00Z,26.2168,-96.4998,4.0,0.182482876,99.462721,1.43,'11111222,11111222,11111222' 
TABS,ioos:station:wmo:42045:1,2012-06-03T07:00:00Z,26.2168,-96.4998,4.0,0.155241747,284.9313823,1.05,'11111222,11111222,11111222' 
TABS,ioos:station:wmo:42045:1,2012-06-03T07:30:00Z,26.2168,-96.4998,4.0,0.114017543,105.2555039,1.14,'11111222,11111222,11111222' 
TABS,ioos:station:wmo:42045:1,2012-06-03T08:00:00Z,26.2168,-96.4998,4.0,0.090553851,96.34059784,0.89,'11111222,11111222,11111222' 
TABS,ioos:station:wmo:42045:1,2012-06-03T08:30:00Z,26.2168,-96.4998,4.0,0.13,90.00042092,0.77,'11111222,11111222,11111222' 
TABS,ioos:station:wmo:42045:1,2012-06-03T09:00:00Z,26.2168,-96.4998,4.0,0.215406592,111.8017794,1.36,'11111222,11111222,11111222' 
TABS,ioos:station:wmo:42045:1,2012-06-03T09:30:00Z,26.2168,-96.4998,4.0,0.186815417,105.5244956,1.46,'11111222,11111222,11111222' 
TABS,ioos:station:wmo:42045:1,2012-06-03T10:00:00Z,26.2168,-96.4998,4.0,0.014142136,44.99968431,1.16,'11111222,11111222,11111222' 
TABS,ioos:station:wmo:42045:1,2012-06-03T10:30:00Z,26.2168,-96.4998,4.0,0.031622777,251.5650943,0.95,'11111222,11111222,11111222' 
TABS,ioos:station:wmo:42045:1,2012-06-03T11:00:00Z,26.2168,-96.4998,4.0,0.143178211,102.0951497,1.1,'11111222,11111222,11111222' 
TABS,ioos:station:wmo:42045:1,2012-06-03T11:30:00Z,26.2168,-96.4998,4.0,0.139283883,111.0378827,0.8,'11111222,11111222,11111222' 
TABS,ioos:station:wmo:42045:1,2012-06-03T12:00:00Z,26.2168,-96.4998,4.0,0.139283883,111.0378827,0.94,'11111222,11111222,11111222' 
TABS,ioos:station:wmo:42045:1,2012-06-03T12:30:00Z,26.2168,-96.4998,4.0,0.116619038,120.964105,1.03,'11111222,11111222,11111222' 
TABS,ioos:station:wmo:42045:1,2012-06-03T13:00:00Z,26.2168,-96.4998,4.0,0.170293864,266.6335472,1.69,'11111222,11111222,11111222' 
TABS,ioos:station:wmo:42045:1,2012-06-03T13:30:00Z,26.2168,-96.4998,4.0,0.278926514,255.4655789,2.14,'11111222,11111222,11111222' 
TABS,ioos:station:wmo:42045:1,2012-06-03T14:00:00Z,26.2168,-96.4998,4.0,0.261725047,276.5819293,2.11,'11111222,11111222,11111222' 
TABS,ioos:station:wmo:42045:1,2012-06-03T14:30:00Z,26.2168,-96.4998,4.0,0.457055795,259.9194256,2.58,'11111222,11111222,11111222' 
TABS,ioos:station:wmo:42045:1,2012-06-03T15:00:00Z,26.2168,-96.4998,4.0,0.654904573,262.9835147,3.5,'11111222,11111222,11111222' 
TABS,ioos:station:wmo:42045:1,2012-06-03T15:30:00Z,26.2168,-96.4998,4.0,0.621691242,258.8708367,3.34,'11111222,11111222,11111222' 
TABS,ioos:station:wmo:42045:1,2012-06-03T16:00:00Z,26.2168,-96.4998,4.0,1.480540442,268.4518459,4.12,'11111222,11111222,11111222' 
TABS,ioos:station:wmo:42045:1,2012-06-03T16:30:00Z,26.2168,-96.4998,4.0,1.424254191,265.5704511,5.16,'11111222,11111222,11111222' 
TABS,ioos:station:wmo:42045:1,2012-06-03T17:00:00Z,26.2168,-96.4998,4.0,0.544518136,262.6139741,3.07,'11111222,11111222,11111222' 
TABS,ioos:station:wmo:42045:1,2012-06-03T17:30:00Z,26.2168,-96.4998,4.0,0.725603197,262.8750003,3.51,'11111222,11111222,11111222' 
TABS,ioos:station:wmo:42045:1,2012-06-03T18:00:00Z,26.2168,-96.4998,4.0,0.12083046,114.4443185,2.09,'11111222,11111222,11111222' 
TABS,ioos:station:wmo:42045:1,2012-06-03T18:30:00Z,26.2168,-96.4998,4.0,0.303644529,252.7585809,2.44,'11111222,11111222,11111222' 
TABS,ioos:station:wmo:42045:1,2012-06-03T19:00:00Z,26.2168,-96.4998,4.0,0.66189123,265.6676961,3.03,'11111222,11111222,11111222' 
TABS,ioos:station:wmo:42045:1,2012-06-03T19:30:00Z,26.2168,-96.4998,4.0,0.25,233.1301886,3.03,'11111222,11111222,11111222' 
TABS,ioos:station:wmo:42045:1,2012-06-03T20:00:00Z,26.2168,-96.4998,4.0,0.423792402,250.7099989,2.59,'11111222,11111222,11111222' 
TABS,ioos:station:wmo:42045:1,2012-06-03T20:30:00Z,26.2168,-96.4998,4.0,1.226906679,263.9176775,3.69,'11111222,11111222,11111222' 
TABS,ioos:station:wmo:42045:1,2012-06-03T21:00:00Z,26.2168,-96.4998,4.0,0.842911621,265.2363694,3.3,'11111222,11111222,11111222' 
TABS,ioos:station:wmo:42045:1,2012-06-03T21:30:00Z,26.2168,-96.4998,4.0,0.063245553,198.4351162,2.28,'11111222,11111222,11111222' 
TABS,ioos:station:wmo:42045:1,2012-06-04T00:00:00Z,26.2168,-96.4998,4.0,0.184390889,102.5291993,2.66,'11111222,11111222,11111222' 
TABS,ioos:station:wmo:42045:1,2012-06-04T00:30:00Z,26.2168,-96.4998,4.0,0.247386338,104.0366316,2.12,'11111222,11111222,11111222' 
TABS,ioos:station:wmo:42045:1,2012-06-04T01:00:00Z,26.2168,-96.4998,4.0,0.031622777,71.56467337,1.78,'11111222,11111222,11111222' 
TABS,ioos:station:wmo:42045:1,2012-06-04T01:30:00Z,26.2168,-96.4998,4.0,0.11045361,95.19483768,1.47,'11111222,11111222,11111222' 
TABS,ioos:station:wmo:42045:1,2012-06-04T02:00:00Z,26.2168,-96.4998,4.0,0.014142136,135.0003157,1.15,'11111222,11111222,11111222' 
TABS,ioos:station:wmo:42045:1,2012-06-04T02:30:00Z,26.2168,-96.4998,4.0,0.05,90.00042092,0.92,'11111222,11111222,11111222' 
TABS,ioos:station:wmo:42045:1,2012-06-04T03:00:00Z,26.2168,-96.4998,4.0,0.164924225,255.9637894,1.83,'11111222,11111222,11111222' 
TABS,ioos:station:wmo:42045:1,2012-06-04T03:30:00Z,26.2168,-96.4998,4.0,0.123693169,255.9637894,1.6,'11111222,11111222,11111222' 
TABS,ioos:station:wmo:42045:1,2012-06-04T04:00:00Z,26.2168,-96.4998,4.0,0.162788206,259.3803696,1.91,'11111222,11111222,11111222' 
TABS,ioos:station:wmo:42045:1,2012-06-04T04:30:00Z,26.2168,-96.4998,4.0,0.354400903,253.610498,2.19,'11111222,11111222,11111222' 
TABS,ioos:station:wmo:42045:1,2012-06-04T05:00:00Z,26.2168,-96.4998,4.0,0.32249031,262.8750003,2.29,'11111222,11111222,11111222' 
TABS,ioos:station:wmo:42045:1,2012-06-04T05:30:00Z,26.2168,-96.4998,4.0,0.623618473,254.180843,2.92,'11111222,11111222,11111222' 
TABS,ioos:station:wmo:42045:1,2012-06-04T06:00:00Z,26.2168,-96.4998,4.0,0.331360831,264.8055832,1.94,'11111222,11111222,11111222' 
TABS,ioos:station:wmo:42045:1,2012-06-04T06:30:00Z,26.2168,-96.4998,4.0,0.288617394,255.9637894,2.04,'11111222,11111222,11111222' 
TABS,ioos:station:wmo:42045:1,2012-06-04T07:00:00Z,26.2168,-96.4998,4.0,0.50447993,256.2392471,3.34,'11111222,11111222,11111222' 
TABS,ioos:station:wmo:42045:1,2012-06-04T07:30:00Z,26.2168,-96.4998,4.0,0.395600809,253.855699,2.59,'11111222,11111222,11111222' 
TABS,ioos:station:wmo:42045:1,2012-06-04T08:00:00Z,26.2168,-96.4998,4.0,0.050990195,258.690094,1.11,'11111222,11111222,11111222' 
TABS,ioos:station:wmo:42045:1,2012-06-04T08:30:00Z,26.2168,-96.4998,4.0,0.114017543,232.1251049,2.31,'11111222,11111222,11111222' 
TABS,ioos:station:wmo:42045:1,2012-06-04T09:00:00Z,26.2168,-96.4998,4.0,0.114017543,285.255083,2.11,'11111222,11111222,11111222' 
TABS,ioos:station:wmo:42045:1,2012-06-04T09:30:00Z,26.2168,-96.4998,4.0,0.263058929,261.2538582,1.98,'11111222,11111222,11111222' 
TABS,ioos:station:wmo:42045:1,2012-06-04T10:00:00Z,26.2168,-96.4998,4.0,0.01,270.0,1.26,'11111222,11111222,11111222' 
TABS,ioos:station:wmo:42045:1,2012-06-04T10:30:00Z,26.2168,-96.4998,4.0,0.196468827,255.2564716,1.42,'11111222,11111222,11111222' 
TABS,ioos:station:wmo:42045:1,2012-06-04T11:00:00Z,26.2168,-96.4998,4.0,0.222036033,262.2348521,1.75,'11111222,11111222,11111222' 
TABS,ioos:station:wmo:42045:1,2012-06-04T11:30:00Z,26.2168,-96.4998,4.0,0.241867732,262.8750003,1.07,'11111222,11111222,11111222' 
TABS,ioos:station:wmo:42045:1,2012-06-04T12:00:00Z,26.2168,-96.4998,4.0,0.180277564,93.1802436,0.95,'11111222,11111222,11111222' 
TABS,ioos:station:wmo:42045:1,2012-06-04T12:30:00Z,26.2168,-96.4998,4.0,0.07,180.0002105,1.07,'11111222,11111222,11111222' 
TABS,ioos:station:wmo:42045:1,2012-06-04T13:00:00Z,26.2168,-96.4998,4.0,0.421900462,264.5596807,2.07,'11111222,11111222,11111222' 
TABS,ioos:station:wmo:42045:1,2012-06-04T13:30:00Z,26.2168,-96.4998,4.0,0.384707681,261.0273944,1.87,'11111222,11111222,11111222' 
TABS,ioos:station:wmo:42045:1,2012-06-04T14:00:00Z,26.2168,-96.4998,4.0,0.901387819,266.8201773,2.12,'11111222,11111222,11111222' 
TABS,ioos:station:wmo:42045:1,2012-06-04T14:30:00Z,26.2168,-96.4998,4.0,0.920217366,268.7546386,1.64,'11111222,11111222,11111222' 
TABS,ioos:station:wmo:42045:1,2012-06-04T15:00:00Z,26.2168,-96.4998,4.0,0.818840644,261.5730507,2.4,'11111222,11111222,11111222' 
TABS,ioos:station:wmo:42045:1,2012-06-04T15:30:00Z,26.2168,-96.4998,4.0,0.763216876,264.7376169,2.94,'11111222,11111222,11111222' 
TABS,ioos:station:wmo:42045:1,2012-06-05T00:00:00Z,26.2168,-96.4998,4.0,0.234093998,109.9834807,1.46,'11111222,11111222,11111222' 
TABS,ioos:station:wmo:42045:1,2012-06-05T00:30:00Z,26.2168,-96.4998,4.0,0.145602198,105.9457795,1.32,'11111222,11111222,11111222' 
TABS,ioos:station:wmo:42045:1,2012-06-05T01:00:00Z,26.2168,-96.4998,4.0,0.130384048,122.4715373,1.01,'11111222,11111222,11111222' 
TABS,ioos:station:wmo:42045:1,2012-06-05T01:30:00Z,26.2168,-96.4998,4.0,0.256320112,110.5564181,1.81,'11111222,11111222,11111222' 
TABS,ioos:station:wmo:42045:1,2012-06-05T02:00:00Z,26.2168,-96.4998,4.0,0.053851648,248.1986415,1.05,'11111222,11111222,11111222' 
TABS,ioos:station:wmo:42045:1,2012-06-05T02:30:00Z,26.2168,-96.4998,4.0,0.053851648,248.1986415,1.75,'11111222,11111222,11111222' 
TABS,ioos:station:wmo:42045:1,2012-06-05T03:00:00Z,26.2168,-96.4998,4.0,0.265706605,250.2011699,2.03,'11111222,11111222,11111222' 
TABS,ioos:station:wmo:42045:1,2012-06-05T03:30:00Z,26.2168,-96.4998,4.0,0.330605505,273.4682211,1.66,'11111222,11111222,11111222' 
TABS,ioos:station:wmo:42045:1,2012-06-05T04:00:00Z,26.2168,-96.4998,4.0,0.294278779,260.2176158,1.27,'11111222,11111222,11111222' 
TABS,ioos:station:wmo:42045:1,2012-06-05T04:30:00Z,26.2168,-96.4998,4.0,0.150332964,273.8140659,1.47,'11111222,11111222,11111222' 
TABS,ioos:station:wmo:42045:1,2012-06-05T05:00:00Z,26.2168,-96.4998,4.0,0.070710678,261.8699167,2.04,'11111222,11111222,11111222' 
TABS,ioos:station:wmo:42045:1,2012-06-05T05:30:00Z,26.2168,-96.4998,4.0,0.341320963,264.9575607,1.76,'11111222,11111222,11111222' 
TABS,ioos:station:wmo:42045:1,2012-06-05T06:00:00Z,26.2168,-96.4998,4.0,0.451220567,257.1957639,1.67,'11111222,11111222,11111222' 
TABS,ioos:station:wmo:42045:1,2012-06-05T06:30:00Z,26.2168,-96.4998,4.0,0.437378555,259.4608409,1.68,'11111222,11111222,11111222' 
TABS,ioos:station:wmo:42045:1,2012-06-05T07:00:00Z,26.2168,-96.4998,4.0,0.384707681,261.0273944,1.39,'11111222,11111222,11111222' 
TABS,ioos:station:wmo:42045:1,2012-06-05T07:30:00Z,26.2168,-96.4998,4.0,0.089442719,243.4350109,1.15,'11111222,11111222,11111222' 
TABS,ioos:station:wmo:42045:1,2012-06-05T08:00:00Z,26.2168,-96.4998,4.0,0.372155881,263.8298393,1.25,'11111222,11111222,11111222' 
TABS,ioos:station:wmo:42045:1,2012-06-05T08:30:00Z,26.2168,-96.4998,4.0,0.631268564,266.3670578,1.49,'11111222,11111222,11111222' 
TABS,ioos:station:wmo:42045:1,2012-06-05T09:00:00Z,26.2168,-96.4998,4.0,0.640312424,268.2100936,1.2,'11111222,11111222,11111222' 
TABS,ioos:station:wmo:42045:1,2012-06-05T09:30:00Z,26.2168,-96.4998,4.0,0.510881591,266.6335472,0.97,'11111222,11111222,11111222' 
TABS,ioos:station:wmo:42045:1,2012-06-05T10:00:00Z,26.2168,-96.4998,4.0,0.430116263,268.6677833,0.93,'11111222,11111222,11111222' 
TABS,ioos:station:wmo:42045:1,2012-06-05T10:30:00Z,26.2168,-96.4998,4.0,0.943398113,265.1354969,1.58,'11111222,11111222,11111222' 
TABS,ioos:station:wmo:42045:1,2012-06-05T11:00:00Z,26.2168,-96.4998,4.0,1.031212878,267.2208396,1.88,'11111222,11111222,11111222' 